Temp
2 2 2 2 2 2 2 2 2 2 1 1 1 1 1 1 0 0 0 0 0 1 1 1 1 1 1 1 1 1 1 1 1 1 1 2 2 2 2 1 1 1
2 2 2 2 2 2 2 2 2 2 2 1 1 1 1 1 1 0 0 0 0 0 0 0 0 0 0 1 1 1 1 1 1 1 1 1 1 1 1 1 1 1
2 2 2 2 2 2 2 2 2 2 2 1 1 1 1 1 1 1 0 0 -0 -0 -0 -0 -0 -0 0 0 0 0 0 0 1 1 1 1 1 1 1 1 1 1
1 2 2 2 2 2 2 2 2 2 2 2 2 1 1 1 1 1 1 0 0 -0 -0 -0 -0 -0 -0 -0 -0 -0 -0 0 0 0 0 0 0 1 1 1 1 1
1 1 1 1 2 2 1 2 2 2 2 2 2 2 2 1 1 1 1 1 0 0 0 -0 -0 -0 -0 -0 -0 -0 -0 -0 -0 -0 0 0 0 0 0 0 0 1
0 1 1 1 2 2 2 2 1 2 2 2 2 2 2 1 1 1 1 1 1 0 0 0 0 0 0 0 -0 -0 -0 -0 -0 -0 -0 -0 -0 0 0 0 0 0
1 1 1 1 1 1 1 1 1 1 1 1 1 2 2 2 1 1 1 1 0 0 0 0 0 0 0 0 0 0 0 0 0 0 0 0 0 0 0 0 0 0
1 1 1 1 1 1 1 1 1 1 1 1 1 1 1 1 1 1 1 1 1 0 0 0 0 0 0 0 0 0 0 0 0 0 0 0 0 0 0 0 0 0
1 1 0 0 0 0 1 1 1 1 1 1 1 1 1 1 1 1 1 1 1 0 0 0 0 0 0 0 -0 -0 -0 0 0 0 0 0 0 0 0 0 0 0
1 1 1 0 0 0 1 1 1 1 1 1 1 1 1 1 1 1 1 1 1 0 0 0 1 1 1 0 0 -0 -0 -0 -0 -0 -0 -0 0 0 0 0 0 0
0 1 1 1 0 0 1 1 1 1 1 1 1 1 1 1 0 0 0 0 0 0 -0 -0 0 0 0 0 0 1 0 0 0 0 -0 -0 -0 -0 0 0 0 0
-0 -0 0 1 1 1 1 1 1 1 0 1 1 1 1 0 0 -0 -0 -0 -0 -0 -0 -0 -0 -0 -0 -0 0 1 1 1 0 0 0 -0 -0 -0 0 0 1 0
-0 -0 -0 0 1 1 1 0 0 0 0 0 0 0 0 0 -0 -1 -1 -0 -0 -0 -0 -1 -1 -1 -1 -1 -0 0 0 0 0 0 0 0 0 0 0 0 0 1
-0 -0 -0 0 0 0 0 0 0 0 0 0 0 0 0 0 0 -0 -0 -0 0 0 -0 -0 -1 -0 -0 -1 -1 -0 0 0 0 0 0 1 1 1 0 0 0 0
-0 -0 -0 -0 -0 -0 -0 0 0 0 0 0 0 0 0 0 0 0 0 0 0 0 0 -0 -0 -0 -0 -1 -1 -1 -0 0 0 0 0 1 1 1 1 1 0 0
0 0 0 0 0 0 0 0 0 0 0 0 0 0 0 0 0 0 0 0 0 0 0 0 -0 -0 -0 -1 -1 -1 -1 -0 -0 0 0 0 0 0 0 0 0 -0
-0 0 0 0 0 0 0 0 0 0 0 0 0 0 0 0 0 0 0 0 -0 -0 -0 0 -0 -0 -0 -1 -1 -1 -1 -1 -1 -1 -0 -0 -0 -0 -0 -0 -0 -0
-0 -0 -0 -0 -0 -0 -0 -0 0 0 0 0 0 0 0 0 0 0 -0 -0 -0 -0 -0 -0 -0 -0 -1 -1 -1 -1 -1 -1 -1 -1 -1 -1 -1 -1 -1 -1 -1 -1
-1 -1 -1 -1 -1 -1 -1 -1 -1 -1 -1 -1 -0 -0 0 0 0 -0 -0 -1 -1 -1 -1 -1 -1 -1 -1 -1 -1 -1 -1 -1 -1 -1 -1 -1 -1 -1 -1 -1 -2 -2
-2 -2 -1 -1 -1 -1 -1 -1 -1 -1 -2 -2 -1 -1 -1 -1 -1 -0 -0 -1 -1 -1 -1 -1 -1 -1 -1 -1 -1 -1 -1 -1 -1 -1 -2 -2 -2 -2 -2 -2 -2 -2
-2 -2 -2 -2 -2 -2 -2 -2 -2 -2 -2 -2 -2 -2 -2 -2 -2 -1 -1 -1 -1 -1 -1 -1 -1 -1 -1 -1 -1 -2 -1 -1 -1 -2 -2 -2 -2 -2 -2 -2 -3 -3
-3 -3 -3 -3 -3 -2 -2 -2 -3 -3 -3 -3 -3 -3 -2 -2 -2 -2 -2 -2 -2 -2 -2 -2 -1 -2 -2 -1 -2 -2 -2 -2 -2 -2 -2 -2 -3 -3 -3 -3 -3 -3
-3 -3 -3 -3 -3 -3 -3 -3 -3 -3 -3 -3 -3 -3 -3 -3 -3 -2 -2 -2 -2 -2 -2 -2 -2 -2 -2 -2 -2 -2 -2 -2 -2 -2 -2 -3 -3 -3 -3 -3 -3 -3
-4 -4 -4 -4 -4 -3 -3 -3 -3 -3 -3 -3 -3 -3 -3 -3 -3 -3 -3 -3 -3 -3 -2 -2 -2 -2 -2 -2 -2 -2 -2 -2 -3 -3 -3 -3 -3 -3 -3 -3 -3 -3
-4 -4 -4 -4 -4 -4 -4 -4 -4 -4 -4 -4 -4 -3 -3 -3 -3 -3 -3 -3 -3 -3 -3 -3 -3 -2 -2 -3 -3 -3 -3 -3 -3 -3 -3 -3 -4 -4 -4 -4 -4 -4
-4 -4 -4 -4 -4 -4 -4 -4 -4 -4 -4 -4 -4 -4 -4 -3 -3 -3 -3 -3 -3 -3 -3 -3 -3 -3 -3 -3 -3 -3 -3 -3 -3 -3 -3 -4 -4 -4 -4 -4 -4 -4
Height
3123 3124 3125 3125 3126 3126 3127 3127 3126 3126 3126 3126 3126 3126 3126 3126 3126 3126 3127 3127 3127 3127 3127 3127 3127 3128 3128 3128 3128 3128 3128 3128 3128 3128 3129 3129 3129 3129 3129 3128 3128 3128
3122 3123 3124 3124 3125 3125 3126 3127 3127 3127 3127 3127 3127 3126 3126 3127 3127 3127 3127 3127 3128 3128 3128 3128 3128 3128 3128 3128 3128 3128 3128 3128 3128 3128 3129 3129 3128 3128 3128 3128 3128 3128
3121 3122 3123 3123 3124 3124 3125 3126 3127 3127 3127 3127 3127 3127 3127 3127 3127 3127 3128 3128 3128 3128 3129 3129 3129 3129 3129 3129 3129 3129 3129 3129 3129 3129 3129 3129 3129 3129 3129 3128 3128 3128
3121 3121 3122 3122 3123 3123 3124 3125 3126 3127 3127 3127 3127 3127 3128 3127 3127 3128 3128 3128 3129 3129 3129 3129 3130 3130 3130 3131 3130 3130 3130 3130 3129 3129 3129 3129 3129 3129 3129 3129 3129 3129
3118 3120 3121 3121 3121 3122 3123 3124 3125 3126 3126 3126 3126 3127 3127 3128 3128 3128 3128 3128 3129 3129 3129 3129 3130 3130 3130 3131 3131 3131 3131 3131 3130 3130 3130 3130 3130 3130 3129 3129 3129 3129
3115 3117 3119 3120 3120 3121 3122 3123 3124 3124 3125 3125 3125 3126 3126 3127 3127 3127 3128 3128 3128 3129 3129 3129 3130 3130 3130 3130 3130 3131 3131 3131 3131 3131 3130 3130 3130 3130 3130 3129 3129 3129
3112 3115 3117 3118 3119 3119 3120 3121 3122 3123 3123 3123 3124 3124 3125 3125 3126 3126 3127 3127 3127 3127 3128 3129 3129 3129 3130 3130 3130 3130 3130 3130 3130 3131 3131 3130 3130 3130 3129 3129 3129 3129
3111 3112 3114 3116 3117 3116 3117 3118 3120 3120 3121 3121 3122 3122 3123 3123 3124 3124 3125 3125 3125 3125 3126 3126 3127 3128 3128 3129 3129 3129 3129 3130 3130 3130 3130 3130 3130 3129 3129 3129 3129 3128
3109 3109 3111 3113 3113 3114 3115 3116 3117 3118 3119 3120 3120 3121 3121 3122 3122 3122 3121 3122 3124 3124 3125 3125 3125 3125 3126 3126 3127 3127 3128 3128 3128 3128 3128 3128 3129 3128 3128 3128 3128 3128
3106 3107 3109 3110 3110 3111 3113 3114 3114 3115 3117 3118 3119 3119 3119 3119 3119 3118 3119 3120 3122 3123 3124 3124 3123 3122 3123 3123 3124 3125 3125 3126 3126 3127 3127 3126 3126 3127 3127 3127 3126 3126
3103 3105 3107 3108 3108 3109 3111 3112 3112 3113 3114 3116 3117 3117 3117 3117 3116 3116 3117 3118 3119 3120 3120 3120 3119 3119 3121 3122 3123 3123 3123 3124 3124 3124 3124 3124 3124 3124 3124 3124 3124 3124
3101 3103 3104 3105 3106 3107 3108 3109 3110 3110 3111 3113 3114 3114 3114 3113 3113 3113 3114 3115 3116 3116 3116 3115 3114 3115 3117 3119 3121 3121 3121 3121 3121 3121 3121 3121 3121 3121 3121 3121 3122 3122
3100 3101 3102 3103 3103 3104 3105 3106 3107 3108 3109 3110 3110 3110 3110 3109 3109 3110 3111 3112 3112 3112 3112 3112 3111 3111 3113 3115 3116 3117 3117 3117 3117 3118 3118 3118 3118 3118 3118 3118 3118 3118
3098 3100 3101 3101 3101 3102 3103 3104 3105 3105 3106 3106 3106 3106 3106 3106 3106 3106 3108 3109 3110 3109 3110 3110 3109 3109 3110 3111 3112 3113 3113 3114 3114 3114 3115 3115 3115 3115 3114 3114 3115 3115
3098 3098 3099 3099 3100 3101 3101 3102 3102 3103 3103 3103 3103 3103 3103 3103 3103 3104 3105 3106 3107 3106 3106 3107 3107 3108 3108 3109 3110 3110 3110 3111 3111 3111 3111 3111 3111 3111 3111 3111 3111 3111
3096 3097 3097 3098 3098 3099 3099 3100 3100 3100 3101 3101 3101 3101 3101 3101 3101 3101 3102 3102 3103 3103 3103 3104 3105 3106 3106 3106 3107 3107 3107 3107 3107 3107 3107 3107 3107 3106 3106 3107 3107 3107
3094 3094 3094 3095 3095 3096 3096 3096 3097 3097 3098 3098 3098 3098 3098 3098 3098 3098 3099 3099 3099 3099 3100 3100 3101 3102 3103 3103 3103 3103 3103 3103 3104 3104 3103 3103 3102 3102 3102 3103 3103 3104
3090 3091 3091 3091 3092 3092 3092 3092 3093 3093 3094 3094 3095 3095 3095 3095 3095 3095 3095 3095 3096 3096 3096 3097 3097 3098 3099 3099 3100 3100 3099 3099 3100 3100 3100 3099 3099 3098 3098 3098 3099 3099
3087 3087 3088 3088 3088 3089 3089 3089 3089 3089 3090 3090 3090 3091 3091 3091 3091 3092 3092 3092 3092 3093 3093 3093 3093 3094 3094 3095 3095 3096 3096 3095 3095 3095 3095 3095 3095 3095 3095 3095 3095 3095
3084 3084 3084 3084 3085 3085 3085 3085 3086 3086 3086 3086 3087 3087 3087 3087 3087 3088 3088 3088 3089 3089 3089 3089 3089 3089 3090 3091 3092 3092 3092 3091 3091 3091 3090 3090 3091 3091 3091 3091 3090 3090
3081 3081 3081 3081 3082 3082 3082 3082 3083 3083 3083 3083 3084 3084 3084 3084 3084 3084 3084 3085 3085 3085 3085 3085 3085 3085 3087 3088 3088 3088 3087 3087 3087 3087 3087 3086 3087 3087 3086 3086 3085 3085
3078 3078 3078 3078 3078 3079 3079 3079 3080 3080 3080 3080 3080 3081 3081 3081 3081 3081 3081 3081 3081 3081 3081 3082 3082 3082 3083 3084 3084 3083 3083 3083 3083 3083 3083 3083 3083 3082 3082 3081 3080 3080
3075 3075 3075 3075 3075 3075 3075 3076 3076 3076 3077 3077 3077 3077 3077 3077 3077 3077 3077 3078 3078 3079 3079 3079 3079 3079 3079 3079 3080 3080 3080 3080 3079 3079 3079 3079 3078 3078 3078 3077 3076 3076
3072 3072 3072 3072 3072 3072 3072 3072 3073 3073 3073 3073 3073 3073 3073 3073 3073 3073 3073 3074 3075 3075 3075 3075 3076 3076 3075 3075 3075 3076 3076 3076 3075 3075 3074 3074 3074 3074 3074 3073 3072 3072
3068 3068 3068 3068 3068 3068 3069 3069 3069 3069 3069 3069 3069 3069 3068 3068 3068 3068 3069 3069 3070 3071 3071 3071 3071 3071 3071 3071 3071 3071 3071 3071 3071 3071 3070 3070 3070 3070 3069 3069 3068 3067
3064 3064 3064 3064 3064 3064 3065 3065 3065 3065 3066 3065 3065 3065 3064 3064 3064 3064 3065 3065 3065 3066 3066 3066 3066 3066 3066 3066 3066 3067 3067 3067 3067 3066 3066 3066 3065 3065 3064 3063 3062 3062
Wind_Speed
9 10 9 8 4 2 2 3 3 2 2 2 1 1 2 3 5 6 7 8 8 9 9 8 7 6 5 4 4 3 3 3 2 2 1 0 1 2 2 2 3 3
9 10 10 9 6 4 4 3 3 3 3 2 2 2 2 1 2 3 4 5 7 8 9 9 8 7 6 5 4 4 4 4 3 3 2 2 2 1 1 0 1 1
11 11 11 11 8 7 6 6 5 5 5 4 3 3 4 3 2 0 1 2 3 5 6 7 7 7 7 7 6 6 5 5 4 4 4 3 3 2 2 2 1 1
13 12 12 12 11 10 9 8 7 7 8 7 6 5 5 5 5 4 2 2 2 1 1 2 4 5 5 6 6 6 6 6 6 6 6 5 5 4 4 3 3 3
15 14 14 14 15 13 11 10 10 10 10 10 10 9 7 6 7 7 6 5 4 4 3 2 1 1 1 2 3 4 4 4 5 5 5 6 6 6 5 5 4 4
18 16 16 17 17 16 14 12 11 12 13 13 13 13 11 10 9 9 9 8 8 7 7 6 6 5 3 3 2 1 0 1 2 3 4 5 5 5 5 5 5 5
21 19 19 19 18 17 16 14 13 13 14 15 16 16 16 15 13 12 11 11 11 10 10 9 9 9 8 7 6 5 4 3 2 1 2 3 4 4 5 5 5 6
25 24 22 20 18 17 16 15 15 15 16 17 17 18 19 19 19 18 16 15 14 13 13 12 11 11 11 11 11 10 9 8 6 5 4 4 5 5 5 5 6 6
24 26 24 21 20 18 17 18 19 20 21 21 20 20 22 23 24 24 24 22 19 17 16 14 13 13 12 12 11 11 11 11 9 9 8 8 7 7 8 8 8 9
18 22 22 21 20 20 20 23 25 25 25 25 24 24 26 27 28 29 30 27 24 22 20 18 17 17 16 14 12 9 10 10 10 10 10 10 10 10 10 10 10 10
16 19 21 22 23 24 25 28 30 31 30 28 25 26 28 30 31 31 31 30 27 25 25 24 23 22 20 18 15 12 11 11 11 11 11 12 12 12 12 12 11 11
14 15 17 19 23 26 27 30 32 33 32 29 27 27 29 30 32 32 31 30 28 26 24 24 27 27 24 20 17 17 16 15 15 14 14 14 14 14 14 14 13 12
10 11 13 14 17 20 23 26 29 30 30 28 27 25 24 24 25 26 25 23 22 20 18 20 23 24 22 18 16 18 20 19 17 16 15 16 17 17 18 18 18 17
6 7 9 11 12 14 17 20 23 24 24 23 22 21 20 19 18 17 17 16 15 14 14 16 17 16 15 14 14 15 17 19 19 18 18 19 20 20 19 19 20 20
7 7 8 9 9 11 13 14 15 16 16 16 16 16 17 16 16 15 15 14 14 14 15 16 16 15 14 15 14 15 17 18 19 21 22 23 25 24 22 20 20 21
13 12 13 13 13 13 13 13 14 14 14 14 15 16 17 17 18 17 16 16 16 17 18 19 18 18 17 18 18 19 20 20 20 22 24 25 27 28 27 24 22 22
17 17 18 18 19 19 18 18 18 19 18 18 19 19 20 21 21 20 20 19 19 20 21 21 21 20 20 20 20 21 22 22 22 23 24 26 28 30 30 28 26 24
18 18 19 20 20 21 21 22 23 23 23 24 24 24 23 23 22 21 21 21 21 22 22 23 23 22 22 22 22 22 23 24 24 24 26 28 29 31 32 32 29 27
19 19 19 20 20 20 21 21 22 23 23 23 24 24 25 25 24 23 22 21 21 22 22 23 23 23 23 23 23 23 24 25 26 26 27 29 30 31 32 32 31 31
20 20 21 21 21 20 20 20 20 20 20 20 20 21 22 23 24 25 25 24 23 22 22 23 24 23 23 22 21 22 23 24 25 26 27 28 28 29 30 32 32 33
19 20 20 20 20 20 20 20 20 21 21 20 20 20 20 20 22 23 24 25 25 24 24 24 24 24 22 20 20 22 23 23 24 25 26 27 27 28 30 32 34 34
19 19 20 20 20 21 21 20 21 21 22 22 21 21 21 21 21 21 22 24 24 24 25 24 24 24 23 21 21 23 23 23 24 25 25 26 27 29 30 32 34 35
20 20 20 21 22 22 21 21 21 22 22 23 23 23 22 22 22 22 23 23 23 23 23 23 23 23 23 23 22 23 23 23 25 26 26 26 27 28 29 32 35 36
20 20 21 22 23 24 24 23 23 23 23 24 25 25 25 25 25 25 24 23 22 22 22 22 22 22 23 23 22 22 22 23 24 26 27 27 28 29 31 34 36 37
22 22 23 24 25 26 26 26 26 25 25 26 27 28 29 29 29 29 29 28 27 26 26 25 25 25 24 23 23 23 24 24 25 26 27 28 28 30 33 35 36 37
24 24 25 26 27 28 28 29 29 29 29 29 30 31 32 32 32 33 32 32 31 30 30 29 28 28 27 26 25 25 26 26 27 28 28 29 30 31 33 35 35 36
Wind_Direction
265 272 279 279 273 269 283 311 328 353 26 31 19 32 54 54 54 52 50 49 49 51 53 55 58 56 52 47 39 30 26 32 32 36 46 59 202 219 238 248 259 270
255 259 266 267 262 260 257 272 294 305 338 4 358 358 358 21 63 75 67 63 59 60 61 61 62 62 61 56 52 47 40 39 38 40 50 56 56 80 114 169 234 258
247 247 255 258 251 248 253 257 267 280 300 312 322 342 340 334 336 343 124 100 74 67 68 67 65 65 65 64 64 66 64 62 62 60 59 61 57 57 60 56 54 46
242 239 243 250 248 243 246 254 262 273 288 297 303 313 319 317 315 310 294 245 208 158 89 76 77 74 69 66 64 66 67 67 70 72 72 70 67 64 63 62 59 56
227 233 237 245 250 247 246 253 263 271 282 288 293 297 299 301 303 301 299 284 255 235 233 243 239 158 97 83 72 67 66 62 61 63 63 62 62 61 62 63 60 58
214 222 232 240 249 253 253 256 263 270 277 282 287 290 291 293 294 293 292 287 276 258 246 248 252 253 250 239 231 221 150 47 40 39 34 31 34 36 38 39 39 38
219 220 228 237 247 254 256 258 263 269 274 277 281 283 286 288 286 285 285 281 278 272 265 259 255 256 260 260 260 255 251 261 274 309 345 345 348 351 357 3 2 1
230 227 227 235 245 249 252 258 263 270 275 276 279 282 285 287 286 284 282 277 273 271 268 265 259 258 260 261 265 267 267 271 279 286 287 290 298 306 315 322 323 327
235 232 225 227 236 240 246 256 263 271 278 277 279 284 287 288 287 284 280 278 280 280 276 271 262 257 256 256 260 265 269 272 277 284 288 288 288 289 295 301 303 303
239 240 236 235 239 241 245 252 260 271 281 280 279 283 286 287 287 286 283 283 286 289 286 280 273 268 265 261 255 251 256 261 266 274 281 285 287 288 292 296 298 297
249 252 254 254 254 254 251 253 259 268 278 281 279 280 282 281 281 285 285 282 284 287 284 276 272 272 273 271 263 254 253 255 256 262 269 277 279 281 286 290 292 293
261 264 267 263 260 258 255 256 261 266 273 277 277 278 279 278 276 277 278 278 281 284 283 278 272 266 265 268 266 261 258 258 262 262 263 268 269 270 277 281 282 283
264 270 272 266 261 260 259 260 262 265 269 273 276 277 279 282 279 272 271 276 280 278 277 281 279 270 266 272 281 273 261 259 270 275 272 270 269 269 275 278 279 277
271 269 269 268 263 260 260 260 261 265 269 272 275 277 281 286 286 277 270 272 273 268 267 274 280 282 283 288 296 289 268 261 271 281 283 281 278 278 277 277 278 278
286 280 278 277 272 267 264 264 265 269 272 274 276 279 283 285 284 279 275 272 270 269 270 270 271 277 282 280 279 278 272 270 275 281 284 283 282 281 278 276 278 279
283 281 278 276 275 275 274 273 275 276 277 276 276 277 279 278 276 276 275 274 274 273 273 272 270 270 271 270 268 266 266 268 271 276 279 279 279 280 279 278 281 282
285 283 280 278 277 277 276 276 278 280 279 279 277 276 276 276 276 277 276 273 271 270 270 270 270 270 268 266 265 264 264 265 266 269 271 271 273 276 277 278 280 281
284 282 280 279 278 278 279 280 280 281 281 280 280 280 279 278 277 275 274 273 271 270 271 271 271 270 267 264 262 263 265 267 266 266 266 266 268 271 274 276 278 279
283 282 280 279 279 278 279 280 280 279 279 279 279 279 279 279 277 275 272 270 268 268 269 270 269 267 264 263 263 262 263 265 266 265 264 263 263 266 271 274 276 276
274 275 276 277 278 278 278 279 279 279 278 278 277 275 275 275 275 276 274 272 270 268 268 268 267 265 265 265 266 263 261 261 262 263 264 264 266 269 273 275 275 274
270 272 272 273 275 276 278 278 279 279 279 277 275 273 271 270 270 271 272 272 272 270 269 268 268 270 272 272 271 269 266 264 263 263 264 267 268 269 270 271 272 272
273 274 275 276 276 275 277 278 278 278 278 277 276 272 270 268 266 266 266 267 269 270 270 271 272 275 276 274 270 270 272 272 271 269 268 267 267 267 269 271 273 272
273 277 281 282 281 280 280 280 280 279 279 278 277 274 272 270 267 265 264 265 268 271 273 275 276 277 277 275 272 270 271 272 272 272 272 271 271 271 272 272 271 272
275 279 283 284 285 285 283 282 282 282 282 281 280 278 277 275 273 271 271 271 274 277 279 280 281 280 279 278 275 272 270 269 269 270 272 271 271 271 271 270 271 275
276 279 282 283 284 283 282 280 279 279 279 280 279 279 278 277 276 276 277 278 281 283 286 286 286 285 283 280 275 271 269 269 268 269 269 269 269 269 270 272 274 277
274 277 280 282 282 282 282 281 280 278 276 275 275 276 277 276 276 276 278 280 282 284 286 288 289 288 286 282 277 272 269 268 268 268 267 267 267 268 270 273 275 276